Time,TemperatureF,DewpointF,PressureIn,WindDirection,WindDirectionDegrees,WindSpeedMPH,WindSpeedGustMPH,Humidity,HourlyPrecipIn,Conditions,Clouds,dailyrainin,SolarRadiationWatts/m^2,SoftwareType,DateUTC
2013-10-16 00:05:00,55.8,55.0,30.14,North,360,0.0,0.0,97,0.00,CLR,CLR,0.00,0.0,WeatherDisplay:10.37,2013-10-16 04:05:00,
2013-10-16 00:10:00,55.8,55.0,30.14,North,360,0.0,0.0,97,0.00,CLR,CLR,0.00,0.0,WeatherDisplay:10.37,2013-10-16 04:10:00,
2013-10-16 00:15:00,55.8,55.0,30.14,North,360,0.0,0.0,97,0.00,CLR,CLR,0.00,0.0,WeatherDisplay:10.37,2013-10-16 04:15:00,
2013-10-16 00:20:00,55.7,54.9,30.13,North,360,0.0,3.0,97,0.00,CLR,CLR,0.00,0.0,WeatherDisplay:10.37,2013-10-16 04:20:00,
2013-10-16 00:25:00,55.6,54.8,30.13,North,360,2.0,3.0,97,0.00,CLR,CLR,0.00,0.0,WeatherDisplay:10.37,2013-10-16 04:25:00,
2013-10-16 00:35:00,55.4,54.3,30.12,North,360,1.0,3.0,96,0.00,CLR,CLR,0.00,0.0,WeatherDisplay:10.37,2013-10-16 04:35:00,
2013-10-16 00:40:00,55.3,54.2,30.12,North,360,2.0,3.0,96,0.00,CLR,CLR,0.00,0.0,WeatherDisplay:10.37,2013-10-16 04:40:00,
2013-10-16 00:45:00,55.2,54.1,30.12,North,360,0.0,3.0,96,0.00,CLR,CLR,0.00,0.0,WeatherDisplay:10.37,2013-10-16 04:45:00,
2013-10-16 00:50:00,55.1,54.3,30.12,North,360,1.0,2.0,97,0.00,CLR,CLR,0.00,0.0,WeatherDisplay:10.37,2013-10-16 04:50:00,
2013-10-16 00:55:00,55.1,54.2,30.12,North,360,1.0,2.0,97,0.00,CLR,CLR,0.00,0.0,WeatherDisplay:10.37,2013-10-16 04:55:00,
2013-10-16 01:05:00,54.9,54.1,30.12,North,360,1.0,3.0,97,0.00,CLR,CLR,0.00,0.0,WeatherDisplay:10.37,2013-10-16 05:05:00,
2013-10-16 01:15:00,54.8,53.7,30.12,North,360,1.0,2.0,96,0.00,CLR,CLR,0.00,0.0,WeatherDisplay:10.37,2013-10-16 05:15:00,
2013-10-16 01:20:00,54.7,53.6,30.12,North,360,1.0,2.0,96,0.00,CLR,CLR,0.00,0.0,WeatherDisplay:10.37,2013-10-16 05:20:00,
2013-10-16 01:25:00,54.6,53.5,30.11,North,360,2.0,3.0,96,0.00,CLR,CLR,0.00,0.0,WeatherDisplay:10.37,2013-10-16 05:25:00,
2013-10-16 01:35:00,54.3,53.2,30.11,North,360,2.0,3.0,96,0.00,CLR,CLR,0.00,0.0,WeatherDisplay:10.37,2013-10-16 05:35:00,
2013-10-16 01:40:00,54.1,53.0,30.11,North,360,2.0,3.0,96,0.00,CLR,CLR,0.00,0.0,WeatherDisplay:10.37,2013-10-16 05:40:00,
2013-10-16 01:50:00,53.7,52.6,30.11,North,360,2.0,5.0,96,0.00,CLR,CLR,0.00,0.0,WeatherDisplay:10.37,2013-10-16 05:50:00,
2013-10-16 01:55:00,53.5,52.4,30.11,North,360,2.0,5.0,96,0.00,CLR,CLR,0.00,0.0,WeatherDisplay:10.37,2013-10-16 05:55:00,
2013-10-16 02:05:00,53.2,52.1,30.11,North,360,2.0,4.0,96,0.00,CLR,CLR,0.00,0.0,WeatherDisplay:10.37,2013-10-16 06:05:00,
2013-10-16 02:10:00,53.1,52.0,30.11,North,360,3.0,4.0,96,0.00,CLR,CLR,0.00,0.0,WeatherDisplay:10.37,2013-10-16 06:10:00,
2013-10-16 02:20:00,52.9,51.8,30.11,North,360,2.0,4.0,96,0.00,CLR,CLR,0.00,0.0,WeatherDisplay:10.37,2013-10-16 06:20:00,
2013-10-16 02:25:00,52.9,51.5,30.11,North,360,2.0,4.0,95,0.00,CLR,CLR,0.00,0.0,WeatherDisplay:10.37,2013-10-16 06:25:00,
2013-10-16 02:30:00,52.9,51.5,30.11,North,360,0.0,4.0,95,0.00,CLR,CLR,0.00,0.0,WeatherDisplay:10.37,2013-10-16 06:30:00,
2013-10-16 02:35:00,52.8,51.4,30.11,North,360,1.0,3.0,95,0.00,CLR,CLR,0.00,0.0,WeatherDisplay:10.37,2013-10-16 06:35:00,
2013-10-16 02:45:00,52.7,51.3,30.11,North,360,1.0,2.0,95,0.00,CLR,CLR,0.00,0.0,WeatherDisplay:10.37,2013-10-16 06:45:00,
2013-10-16 02:50:00,52.6,51.2,30.11,North,360,0.0,0.0,95,0.00,CLR,CLR,0.00,0.0,WeatherDisplay:10.37,2013-10-16 06:50:00,
2013-10-16 02:55:00,52.6,51.2,30.11,North,360,0.0,1.0,95,0.00,CLR,CLR,0.00,0.0,WeatherDisplay:10.37,2013-10-16 06:55:00,
2013-10-16 03:05:00,52.5,51.1,30.11,North,360,0.0,1.0,95,0.00,CLR,CLR,0.00,0.0,WeatherDisplay:10.37,2013-10-16 07:05:00,
2013-10-16 03:15:00,52.3,51.2,30.11,North,360,0.0,1.0,96,0.00,CLR,CLR,0.00,0.0,WeatherDisplay:10.37,2013-10-16 07:15:00,
2013-10-16 03:20:00,52.1,50.7,30.11,North,360,1.0,2.0,95,0.00,CLR,CLR,0.00,0.0,WeatherDisplay:10.37,2013-10-16 07:20:00,
2013-10-16 03:30:00,51.8,50.7,30.11,North,360,1.0,3.0,96,0.00,CLR,CLR,0.00,0.0,WeatherDisplay:10.37,2013-10-16 07:30:00,
2013-10-16 03:35:00,51.8,50.7,30.10,North,360,0.0,2.0,96,0.00,CLR,CLR,0.00,0.0,WeatherDisplay:10.37,2013-10-16 07:35:00,
2013-10-16 03:45:00,51.8,50.7,30.10,North,360,0.0,0.0,96,0.00,CLR,CLR,0.00,0.0,WeatherDisplay:10.37,2013-10-16 07:45:00,
2013-10-16 03:50:00,51.8,50.7,30.10,North,360,0.0,0.0,96,0.00,CLR,CLR,0.00,0.0,WeatherDisplay:10.37,2013-10-16 07:50:00,
2013-10-16 03:55:00,51.7,50.6,30.10,North,360,0.0,0.0,96,0.00,CLR,CLR,0.00,0.0,WeatherDisplay:10.37,2013-10-16 07:55:00,
2013-10-16 04:00:00,51.5,50.4,30.09,North,360,0.0,0.0,96,0.00,CLR,CLR,0.00,0.0,WeatherDisplay:10.37,2013-10-16 08:00:00,
2013-10-16 04:05:00,51.5,50.4,30.09,North,360,0.0,0.0,96,0.00,CLR,CLR,0.00,0.0,WeatherDisplay:10.37,2013-10-16 08:05:00,
2013-10-16 04:10:00,51.4,50.3,30.09,North,360,0.0,0.0,96,0.00,CLR,CLR,0.00,0.0,WeatherDisplay:10.37,2013-10-16 08:10:00,
2013-10-16 04:20:00,51.1,50.0,30.09,North,360,0.0,0.0,96,0.00,CLR,CLR,0.00,0.0,WeatherDisplay:10.37,2013-10-16 08:20:00,
2013-10-16 04:25:00,50.9,49.8,30.09,North,360,0.0,1.0,96,0.00,CLR,CLR,0.00,0.0,WeatherDisplay:10.37,2013-10-16 08:25:00,
2013-10-16 04:30:00,50.8,49.4,30.09,North,360,0.0,0.0,95,0.00,CLR,CLR,0.00,0.0,WeatherDisplay:10.37,2013-10-16 08:30:00,
2013-10-16 04:40:00,50.6,49.2,30.09,North,360,0.0,0.0,95,0.00,CLR,CLR,0.00,0.0,WeatherDisplay:10.37,2013-10-16 08:40:00,
2013-10-16 04:50:00,50.5,49.4,30.09,North,360,2.0,4.0,96,0.00,CLR,CLR,0.00,0.0,WeatherDisplay:10.37,2013-10-16 08:50:00,
2013-10-16 05:00:00,50.7,49.6,30.09,North,360,3.0,5.0,96,0.00,CLR,CLR,0.00,0.0,WeatherDisplay:10.37,2013-10-16 09:00:00,
2013-10-16 05:05:00,50.8,49.7,30.09,North,360,3.0,4.0,96,0.00,CLR,CLR,0.00,0.0,WeatherDisplay:10.37,2013-10-16 09:05:00,
2013-10-16 05:10:00,50.7,49.3,30.09,North,360,1.0,3.0,95,0.00,CLR,CLR,0.00,0.0,WeatherDisplay:10.37,2013-10-16 09:10:00,
2013-10-16 05:20:00,50.4,49.0,30.09,North,360,0.0,0.0,95,0.00,CLR,CLR,0.00,0.0,WeatherDisplay:10.37,2013-10-16 09:20:00,
2013-10-16 05:30:00,50.0,48.6,30.09,North,360,0.0,0.0,95,0.00,CLR,CLR,0.00,0.0,WeatherDisplay:10.37,2013-10-16 09:30:00,
2013-10-16 05:35:00,49.9,48.5,30.09,North,360,1.0,2.0,95,0.00,CLR,CLR,0.00,0.0,WeatherDisplay:10.37,2013-10-16 09:35:00,
2013-10-16 05:40:00,49.8,48.7,30.09,North,360,1.0,2.0,96,0.00,CLR,CLR,0.00,0.0,WeatherDisplay:10.37,2013-10-16 09:40:00,
2013-10-16 05:45:00,49.9,48.8,30.09,North,360,0.0,1.0,96,0.00,CLR,CLR,0.00,0.0,WeatherDisplay:10.37,2013-10-16 09:45:00,
2013-10-16 05:55:00,49.7,48.6,30.09,North,360,1.0,3.0,96,0.00,CLR,CLR,0.00,0.0,WeatherDisplay:10.37,2013-10-16 09:55:00,
2013-10-16 06:05:00,49.7,48.6,30.09,North,360,1.0,2.0,96,0.00,CLR,CLR,0.00,0.0,WeatherDisplay:10.37,2013-10-16 10:05:00,
2013-10-16 06:10:00,49.6,48.5,30.09,North,360,0.0,2.0,96,0.00,CLR,CLR,0.00,0.0,WeatherDisplay:10.37,2013-10-16 10:10:00,
2013-10-16 06:20:00,49.6,48.5,30.09,North,360,1.0,3.0,96,0.00,CLR,CLR,0.00,0.0,WeatherDisplay:10.37,2013-10-16 10:20:00,
2013-10-16 06:25:00,49.5,48.4,30.09,North,360,1.0,3.0,96,0.00,CLR,CLR,0.00,0.0,WeatherDisplay:10.37,2013-10-16 10:25:00,
2013-10-16 06:35:00,49.4,48.0,30.09,North,360,0.0,2.0,95,0.00,CLR,CLR,0.00,0.0,WeatherDisplay:10.37,2013-10-16 10:35:00,
2013-10-16 06:40:00,49.3,47.9,30.09,North,360,0.0,0.0,95,0.00,CLR,CLR,0.00,0.0,WeatherDisplay:10.37,2013-10-16 10:40:00,
2013-10-16 06:45:00,49.3,48.0,30.09,North,360,0.0,0.0,95,0.00,CLR,CLR,0.00,0.0,WeatherDisplay:10.37,2013-10-16 10:45:00,
2013-10-16 06:50:00,49.4,48.3,30.09,North,360,0.0,0.0,96,0.00,CLR,CLR,0.00,0.0,WeatherDisplay:10.37,2013-10-16 10:50:00,
2013-10-16 06:55:00,49.3,47.9,30.09,North,360,1.0,2.0,95,0.00,CLR,CLR,0.00,0.0,WeatherDisplay:10.37,2013-10-16 10:55:00,
2013-10-16 07:00:00,49.2,48.1,30.09,North,360,1.0,2.0,96,0.00,CLR,CLR,0.00,0.0,WeatherDisplay:10.37,2013-10-16 11:00:00,
2013-10-16 07:05:00,49.2,48.1,30.09,North,360,1.0,2.0,96,0.00,CLR,CLR,0.00,0.0,WeatherDisplay:10.37,2013-10-16 11:05:00,
2013-10-16 07:10:00,49.4,48.3,30.10,North,360,1.0,2.0,96,0.00,OVC,OVC,0.00,0.0,WeatherDisplay:10.37,2013-10-16 11:10:00,
2013-10-16 07:20:00,49.5,48.4,30.11,North,360,5.0,7.0,96,0.00,OVC,OVC,0.00,0.0,WeatherDisplay:10.37,2013-10-16 11:20:00,
2013-10-16 07:25:00,49.5,48.5,30.10,North,360,3.0,6.0,96,0.00,OVC,OVC,0.00,0.0,WeatherDisplay:10.37,2013-10-16 11:25:00,
2013-10-16 07:30:00,49.7,48.6,30.11,North,360,2.0,4.0,96,0.00,OVC,OVC,0.00,0.0,WeatherDisplay:10.37,2013-10-16 11:30:00,
2013-10-16 07:35:00,49.8,48.7,30.11,North,360,0.0,3.0,96,0.00,OVC,OVC,0.00,0.0,WeatherDisplay:10.37,2013-10-16 11:35:00,
2013-10-16 07:40:00,50.1,48.7,30.10,North,360,0.0,2.0,95,0.00,CLR,CLR,0.00,5.0,WeatherDisplay:10.37,2013-10-16 11:40:00,
2013-10-16 07:45:00,50.2,48.8,30.11,North,360,2.0,3.0,95,0.00,SCT,SCT,0.00,11.0,WeatherDisplay:10.37,2013-10-16 11:45:00,
2013-10-16 07:55:00,50.4,48.7,30.10,North,360,0.0,3.0,94,0.00,BKN,BKN,0.00,21.0,WeatherDisplay:10.37,2013-10-16 11:55:00,
2013-10-16 08:00:00,50.5,48.8,30.10,North,360,0.0,2.0,94,0.00,SCT,SCT,0.00,33.0,WeatherDisplay:10.37,2013-10-16 12:00:00,
2013-10-16 08:10:00,50.1,48.4,30.11,North,360,2.0,5.0,94,0.00,CLR,CLR,0.00,86.0,WeatherDisplay:10.37,2013-10-16 12:10:00,
2013-10-16 08:20:00,50.5,49.1,30.10,North,360,1.0,5.0,95,0.00,OVC,OVC,0.00,39.0,WeatherDisplay:10.37,2013-10-16 12:20:00,
2013-10-16 08:30:00,50.9,49.5,30.10,North,360,3.0,6.0,95,0.00,OVC,OVC,0.00,42.0,WeatherDisplay:10.37,2013-10-16 12:30:00,
2013-10-16 08:35:00,51.1,49.7,30.10,North,360,2.0,5.0,95,0.00,OVC,OVC,0.00,54.0,WeatherDisplay:10.37,2013-10-16 12:35:00,
2013-10-16 08:40:00,51.2,49.8,30.10,North,360,1.0,2.0,95,0.00,BKN,BKN,0.00,63.0,WeatherDisplay:10.37,2013-10-16 12:40:00,
2013-10-16 08:45:00,51.2,49.8,30.11,North,360,2.0,3.0,95,0.00,OVC,OVC,0.00,62.0,WeatherDisplay:10.37,2013-10-16 12:45:00,
2013-10-16 08:50:00,51.1,49.7,30.11,North,360,1.0,3.0,95,0.00,OVC,OVC,0.00,65.0,WeatherDisplay:10.37,2013-10-16 12:50:00,
2013-10-16 09:00:00,51.5,50.1,30.11,North,360,2.0,4.0,95,0.00,OVC,OVC,0.00,60.0,WeatherDisplay:10.37,2013-10-16 13:00:00,
2013-10-16 09:10:00,51.9,50.5,30.11,North,360,1.0,4.0,95,0.00,OVC,OVC,0.00,62.0,WeatherDisplay:10.37,2013-10-16 13:10:00,
2013-10-16 09:15:00,52.0,50.6,30.11,North,360,0.0,2.0,95,0.00,OVC,OVC,0.00,74.0,WeatherDisplay:10.37,2013-10-16 13:15:00,
2013-10-16 09:20:00,52.1,50.7,30.11,North,360,1.0,3.0,95,0.00,OVC,OVC,0.00,76.0,WeatherDisplay:10.37,2013-10-16 13:20:00,
2013-10-16 09:25:00,52.2,50.8,30.11,North,360,2.0,5.0,95,0.00,OVC,OVC,0.00,91.0,WeatherDisplay:10.37,2013-10-16 13:25:00,
2013-10-16 09:30:00,52.3,50.9,30.11,North,360,2.0,5.0,95,0.00,OVC,OVC,0.00,121.0,WeatherDisplay:10.37,2013-10-16 13:30:00,
2013-10-16 09:40:00,52.8,51.7,30.11,North,360,3.0,5.0,96,0.00,BKN,BKN,0.00,185.0,WeatherDisplay:10.37,2013-10-16 13:40:00,
2013-10-16 09:45:00,53.3,51.9,30.11,North,360,2.0,4.0,95,0.00,BKN,BKN,0.00,199.0,WeatherDisplay:10.37,2013-10-16 13:45:00,
2013-10-16 09:50:00,53.7,52.3,30.11,North,360,1.0,3.0,95,0.00,SCT,SCT,0.00,216.0,WeatherDisplay:10.37,2013-10-16 13:50:00,
2013-10-16 10:00:00,54.4,52.7,30.11,North,360,0.0,0.0,94,0.00,SCT,SCT,0.00,285.0,WeatherDisplay:10.37,2013-10-16 14:00:00,
2013-10-16 10:05:00,54.7,53.0,30.11,North,360,2.0,4.0,94,0.00,CLR,CLR,0.00,501.0,WeatherDisplay:10.37,2013-10-16 14:05:00,
2013-10-16 10:10:00,55.8,54.1,30.11,North,360,1.0,4.0,94,0.00,CLR,CLR,0.00,468.0,WeatherDisplay:10.37,2013-10-16 14:10:00,
2013-10-16 10:15:00,56.6,54.0,30.12,North,360,1.0,5.0,91,0.00,CLR,CLR,0.00,450.0,WeatherDisplay:10.37,2013-10-16 14:15:00,
2013-10-16 10:25:00,57.8,54.9,30.11,North,360,1.0,7.0,90,0.00,CLR,CLR,0.00,499.0,WeatherDisplay:10.37,2013-10-16 14:25:00,
2013-10-16 10:30:00,58.0,54.8,30.11,North,360,0.0,5.0,89,0.00,BKN,BKN,0.00,241.0,WeatherDisplay:10.37,2013-10-16 14:30:00,
2013-10-16 10:35:00,58.3,54.5,30.10,North,360,2.0,5.0,87,0.00,CLR,CLR,0.00,606.0,WeatherDisplay:10.37,2013-10-16 14:35:00,
2013-10-16 10:40:00,59.0,55.1,30.10,North,360,3.0,9.0,87,0.00,FEW,FEW,0.00,468.0,WeatherDisplay:10.37,2013-10-16 14:40:00,
2013-10-16 10:50:00,59.8,55.6,30.11,North,360,1.0,6.0,86,0.00,FEW,FEW,0.00,466.0,WeatherDisplay:10.37,2013-10-16 14:50:00,
2013-10-16 10:55:00,60.1,55.3,30.11,North,360,2.0,5.0,84,0.00,SCT,SCT,0.00,352.0,WeatherDisplay:10.37,2013-10-16 14:55:00,
2013-10-16 11:05:00,60.0,54.5,30.11,North,360,5.0,7.0,82,0.00,OVC,OVC,0.00,188.0,WeatherDisplay:10.37,2013-10-16 15:05:00,
2013-10-16 11:10:00,60.0,54.8,30.11,North,360,6.0,10.0,83,0.00,OVC,OVC,0.00,167.0,WeatherDisplay:10.37,2013-10-16 15:10:00,
2013-10-16 11:15:00,59.9,54.4,30.10,North,360,3.0,12.0,82,0.00,OVC,OVC,0.00,176.0,WeatherDisplay:10.37,2013-10-16 15:15:00,
2013-10-16 11:20:00,59.9,54.7,30.10,North,360,2.0,7.0,83,0.00,OVC,OVC,0.00,183.0,WeatherDisplay:10.37,2013-10-16 15:20:00,
2013-10-16 11:30:00,60.0,55.2,30.10,North,360,2.0,12.0,84,0.00,OVC,OVC,0.00,216.0,WeatherDisplay:10.37,2013-10-16 15:30:00,
2013-10-16 11:35:00,60.0,54.8,30.09,North,360,2.0,7.0,83,0.00,OVC,OVC,0.00,257.0,WeatherDisplay:10.37,2013-10-16 15:35:00,
2013-10-16 11:40:00,60.2,55.0,30.09,North,360,2.0,5.0,83,0.00,BKN,BKN,0.00,272.0,WeatherDisplay:10.37,2013-10-16 15:40:00,
2013-10-16 11:50:00,60.4,55.2,30.09,North,360,3.0,7.0,83,0.00,OVC,OVC,0.00,199.0,WeatherDisplay:10.37,2013-10-16 15:50:00,
2013-10-16 11:55:00,60.2,54.7,30.09,North,360,3.0,7.0,82,0.00,OVC,OVC,0.00,221.0,WeatherDisplay:10.37,2013-10-16 15:55:00,
2013-10-16 12:00:00,60.0,54.8,30.09,North,360,2.0,7.0,83,0.00,OVC,OVC,0.00,246.0,WeatherDisplay:10.37,2013-10-16 16:00:00,
2013-10-16 12:05:00,59.8,54.6,30.09,North,360,5.0,10.0,83,0.00,OVC,OVC,0.00,260.0,WeatherDisplay:10.37,2013-10-16 16:05:00,
2013-10-16 12:10:00,59.8,55.0,30.09,North,360,2.0,7.0,84,0.00,OVC,OVC,0.00,271.0,WeatherDisplay:10.37,2013-10-16 16:10:00,
2013-10-16 12:15:00,59.8,55.3,30.09,North,360,5.0,9.0,85,0.00,OVC,OVC,0.00,274.0,WeatherDisplay:10.37,2013-10-16 16:15:00,
2013-10-16 12:20:00,59.9,55.4,30.09,North,360,1.0,7.0,85,0.00,OVC,OVC,0.00,274.0,WeatherDisplay:10.37,2013-10-16 16:20:00,
2013-10-16 12:25:00,60.1,55.6,30.08,North,360,1.0,6.0,85,0.00,OVC,OVC,0.00,288.0,WeatherDisplay:10.37,2013-10-16 16:25:00,
2013-10-16 12:30:00,60.4,55.9,30.08,North,360,5.0,7.0,85,0.00,OVC,OVC,0.00,283.0,WeatherDisplay:10.37,2013-10-16 16:30:00,
2013-10-16 12:40:00,60.7,55.5,30.08,North,360,6.0,10.0,83,0.00,OVC,OVC,0.00,294.0,WeatherDisplay:10.37,2013-10-16 16:40:00,
2013-10-16 12:45:00,60.6,55.8,30.08,North,360,5.0,12.0,84,0.00,OVC,OVC,0.00,288.0,WeatherDisplay:10.37,2013-10-16 16:45:00,
2013-10-16 12:50:00,60.6,55.7,30.08,North,360,5.0,10.0,84,0.00,OVC,OVC,0.00,276.0,WeatherDisplay:10.37,2013-10-16 16:50:00,
2013-10-16 12:55:00,60.4,55.2,30.08,North,360,3.0,12.0,83,0.00,OVC,OVC,0.00,274.0,WeatherDisplay:10.37,2013-10-16 16:55:00,
2013-10-16 13:00:00,60.3,55.1,30.08,North,360,3.0,12.0,83,0.00,OVC,OVC,0.00,253.0,WeatherDisplay:10.37,2013-10-16 17:00:00,
2013-10-16 13:05:00,60.2,54.7,30.08,North,360,3.0,10.0,82,0.00,OVC,OVC,0.00,272.0,WeatherDisplay:10.37,2013-10-16 17:05:00,
2013-10-16 13:10:00,60.3,55.1,30.08,North,360,3.0,7.0,83,0.00,BKN,BKN,0.00,322.0,WeatherDisplay:10.37,2013-10-16 17:10:00,
2013-10-16 13:20:00,60.5,55.7,30.08,North,360,5.0,12.0,84,0.00,BKN,BKN,0.00,339.0,WeatherDisplay:10.37,2013-10-16 17:20:00,
2013-10-16 13:25:00,60.7,55.8,30.07,North,360,5.0,10.0,84,0.00,BKN,BKN,0.00,374.0,WeatherDisplay:10.37,2013-10-16 17:25:00,
2013-10-16 13:35:00,61.4,55.5,30.07,North,360,1.0,7.0,81,0.00,BKN,BKN,0.00,431.0,WeatherDisplay:10.37,2013-10-16 17:35:00,
2013-10-16 13:45:00,62.0,56.1,30.07,North,360,3.0,5.0,81,0.00,BKN,BKN,0.00,429.0,WeatherDisplay:10.37,2013-10-16 17:45:00,
2013-10-16 13:50:00,62.2,56.0,30.06,North,360,2.0,7.0,80,0.00,BKN,BKN,0.00,427.0,WeatherDisplay:10.37,2013-10-16 17:50:00,
2013-10-16 14:00:00,62.6,56.3,30.06,North,360,1.0,4.0,80,0.00,BKN,BKN,0.00,339.0,WeatherDisplay:10.37,2013-10-16 18:00:00,
2013-10-16 14:05:00,62.7,56.1,30.06,North,360,5.0,7.0,79,0.00,SCT,SCT,0.00,427.0,WeatherDisplay:10.37,2013-10-16 18:05:00,
2013-10-16 14:10:00,62.7,56.7,30.06,North,360,2.0,5.0,81,0.00,BKN,BKN,0.00,376.0,WeatherDisplay:10.37,2013-10-16 18:10:00,
2013-10-16 14:15:00,63.0,56.7,30.06,North,360,5.0,12.0,80,0.00,BKN,BKN,0.00,355.0,WeatherDisplay:10.37,2013-10-16 18:15:00,
2013-10-16 14:25:00,62.9,57.3,30.05,North,360,2.0,10.0,82,0.00,BKN,BKN,0.00,381.0,WeatherDisplay:10.37,2013-10-16 18:25:00,
2013-10-16 14:30:00,62.9,56.9,30.05,North,360,7.0,15.0,81,0.00,BKN,BKN,0.00,378.0,WeatherDisplay:10.37,2013-10-16 18:30:00,
2013-10-16 14:40:00,62.7,57.1,30.05,North,360,5.0,10.0,82,0.00,BKN,BKN,0.00,288.0,WeatherDisplay:10.37,2013-10-16 18:40:00,
2013-10-16 14:45:00,62.5,56.6,30.05,North,360,3.0,10.0,81,0.00,OVC,OVC,0.00,220.0,WeatherDisplay:10.37,2013-10-16 18:45:00,
2013-10-16 14:55:00,62.1,56.9,30.04,North,360,5.0,12.0,83,0.00,BKN,BKN,0.00,329.0,WeatherDisplay:10.37,2013-10-16 18:55:00,
2013-10-16 15:00:00,62.1,57.2,30.04,North,360,5.0,9.0,84,0.00,BKN,BKN,0.00,353.0,WeatherDisplay:10.37,2013-10-16 19:00:00,
2013-10-16 15:05:00,62.3,57.1,30.04,North,360,5.0,12.0,83,0.00,BKN,BKN,0.00,334.0,WeatherDisplay:10.37,2013-10-16 19:05:00,
2013-10-16 15:10:00,62.5,57.9,30.03,North,360,2.0,10.0,85,0.00,SCT,SCT,0.00,373.0,WeatherDisplay:10.37,2013-10-16 19:10:00,
2013-10-16 15:20:00,62.5,57.3,30.03,North,360,5.0,13.0,83,0.00,SCT,SCT,0.00,385.0,WeatherDisplay:10.37,2013-10-16 19:20:00,
2013-10-16 15:25:00,62.7,57.8,30.03,North,360,3.0,12.0,84,0.00,BKN,BKN,0.00,311.0,WeatherDisplay:10.37,2013-10-16 19:25:00,
2013-10-16 15:30:00,62.9,58.0,30.03,North,360,2.0,6.0,84,0.00,OVC,OVC,0.00,230.0,WeatherDisplay:10.37,2013-10-16 19:30:00,
2013-10-16 15:35:00,62.9,57.7,30.03,North,360,2.0,7.0,83,0.00,OVC,OVC,0.00,192.0,WeatherDisplay:10.37,2013-10-16 19:35:00,
2013-10-16 15:40:00,62.8,57.6,30.03,North,360,3.0,10.0,83,0.00,BKN,BKN,0.00,285.0,WeatherDisplay:10.37,2013-10-16 19:40:00,
2013-10-16 15:45:00,62.8,57.9,30.03,North,360,5.0,9.0,84,0.00,BKN,BKN,0.00,260.0,WeatherDisplay:10.37,2013-10-16 19:45:00,
2013-10-16 15:55:00,62.5,57.6,30.03,North,360,2.0,10.0,84,0.00,OVC,OVC,0.00,192.0,WeatherDisplay:10.37,2013-10-16 19:55:00,
2013-10-16 16:05:00,62.2,57.3,30.03,North,360,5.0,10.0,84,0.00,BKN,BKN,0.00,260.0,WeatherDisplay:10.37,2013-10-16 20:05:00,
2013-10-16 16:15:00,62.3,57.7,30.03,North,360,1.0,6.0,85,0.00,BKN,BKN,0.00,246.0,WeatherDisplay:10.37,2013-10-16 20:15:00,
2013-10-16 16:20:00,62.6,58.1,30.03,North,360,2.0,3.0,85,0.00,BKN,BKN,0.00,209.0,WeatherDisplay:10.37,2013-10-16 20:20:00,
2013-10-16 16:30:00,62.8,57.6,30.03,North,360,5.0,10.0,83,0.00,BKN,BKN,0.00,225.0,WeatherDisplay:10.37,2013-10-16 20:30:00,
2013-10-16 16:35:00,62.6,58.0,30.03,North,360,2.0,12.0,85,0.00,SCT,SCT,0.00,279.0,WeatherDisplay:10.37,2013-10-16 20:35:00,
2013-10-16 16:45:00,62.5,57.9,30.03,North,360,2.0,5.0,85,0.00,OVC,OVC,0.00,137.0,WeatherDisplay:10.37,2013-10-16 20:45:00,
2013-10-16 16:50:00,62.3,57.7,30.02,North,360,3.0,8.0,85,0.00,OVC,OVC,0.00,125.0,WeatherDisplay:10.37,2013-10-16 20:50:00,
2013-10-16 16:55:00,62.1,57.5,30.03,North,360,1.0,6.0,85,0.00,OVC,OVC,0.00,123.0,WeatherDisplay:10.37,2013-10-16 20:55:00,
2013-10-16 17:00:00,61.8,57.3,30.03,North,360,3.0,9.0,85,0.00,OVC,OVC,0.00,125.0,WeatherDisplay:10.37,2013-10-16 21:00:00,
2013-10-16 17:05:00,61.6,57.0,30.04,North,360,5.0,7.0,85,0.00,BKN,BKN,0.00,125.0,WeatherDisplay:10.37,2013-10-16 21:05:00,
2013-10-16 17:10:00,61.4,57.2,30.03,North,360,1.0,5.0,86,0.00,BKN,BKN,0.00,137.0,WeatherDisplay:10.37,2013-10-16 21:10:00,
2013-10-16 17:20:00,61.0,56.8,30.03,North,360,2.0,7.0,86,0.00,OVC,OVC,0.00,98.0,WeatherDisplay:10.37,2013-10-16 21:20:00,
2013-10-16 17:25:00,60.9,56.7,30.03,North,360,5.0,9.0,86,0.00,OVC,OVC,0.00,79.0,WeatherDisplay:10.37,2013-10-16 21:25:00,
2013-10-16 17:30:00,60.6,56.7,30.04,North,360,2.0,7.0,87,0.00,OVC,OVC,0.00,76.0,WeatherDisplay:10.37,2013-10-16 21:30:00,
2013-10-16 17:35:00,60.5,56.6,30.04,North,360,1.0,3.0,87,0.00,OVC,OVC,0.00,63.0,WeatherDisplay:10.37,2013-10-16 21:35:00,
2013-10-16 17:40:00,60.5,56.9,30.04,North,360,2.0,5.0,88,0.00,OVC,OVC,0.00,40.0,WeatherDisplay:10.37,2013-10-16 21:40:00,
2013-10-16 17:45:00,60.4,56.8,30.04,North,360,2.0,3.0,88,0.00,OVC,OVC,0.00,30.0,WeatherDisplay:10.37,2013-10-16 21:45:00,
2013-10-16 17:50:00,60.3,57.0,30.04,North,360,0.0,2.0,89,0.00,OVC,OVC,0.00,30.0,WeatherDisplay:10.37,2013-10-16 21:50:00,
2013-10-16 17:55:00,60.1,56.6,30.04,North,360,2.0,7.0,88,0.00,OVC,OVC,0.00,30.0,WeatherDisplay:10.37,2013-10-16 21:55:00,
2013-10-16 18:05:00,59.7,56.4,30.05,North,360,2.0,6.0,89,0.00,OVC,OVC,0.00,23.0,WeatherDisplay:10.37,2013-10-16 22:05:00,
2013-10-16 18:10:00,59.5,56.3,30.04,North,360,0.0,2.0,89,0.00,OVC,OVC,0.00,19.0,WeatherDisplay:10.37,2013-10-16 22:10:00,
2013-10-16 18:15:00,59.4,56.5,30.04,North,360,2.0,5.0,90,0.00,OVC,OVC,0.00,14.0,WeatherDisplay:10.37,2013-10-16 22:15:00,
2013-10-16 18:20:00,59.3,56.4,30.04,North,360,2.0,5.0,90,0.00,OVC,OVC,0.00,16.0,WeatherDisplay:10.37,2013-10-16 22:20:00,
2013-10-16 18:30:00,59.0,56.1,30.04,North,360,0.0,2.0,90,0.00,OVC,OVC,0.00,18.0,WeatherDisplay:10.37,2013-10-16 22:30:00,
2013-10-16 18:35:00,59.0,56.4,30.04,North,360,0.0,3.0,91,0.00,OVC,OVC,0.00,14.0,WeatherDisplay:10.37,2013-10-16 22:35:00,
2013-10-16 18:40:00,59.0,56.4,30.04,North,360,1.0,3.0,91,0.00,OVC,OVC,0.00,11.0,WeatherDisplay:10.37,2013-10-16 22:40:00,
2013-10-16 18:45:00,59.0,56.4,30.03,North,360,0.0,0.0,91,0.00,OVC,OVC,0.00,9.0,WeatherDisplay:10.37,2013-10-16 22:45:00,
2013-10-16 18:55:00,58.7,56.1,30.03,North,360,1.0,4.0,91,0.00,OVC,OVC,0.00,0.0,WeatherDisplay:10.37,2013-10-16 22:55:00,
2013-10-16 19:00:00,58.5,56.2,30.04,North,360,0.0,0.0,92,0.00,CLR,CLR,0.00,0.0,WeatherDisplay:10.37,2013-10-16 23:00:00,
2013-10-16 19:05:00,58.4,56.1,30.04,North,360,0.0,0.0,92,0.00,CLR,CLR,0.00,0.0,WeatherDisplay:10.37,2013-10-16 23:05:00,
2013-10-16 19:10:00,58.2,55.9,30.04,North,360,2.0,4.0,92,0.00,CLR,CLR,0.00,0.0,WeatherDisplay:10.37,2013-10-16 23:10:00,
2013-10-16 19:15:00,58.2,55.9,30.04,North,360,1.0,3.0,92,0.00,CLR,CLR,0.00,0.0,WeatherDisplay:10.37,2013-10-16 23:15:00,
2013-10-16 19:20:00,58.2,55.8,30.05,North,360,1.0,3.0,92,0.00,CLR,CLR,0.00,0.0,WeatherDisplay:10.37,2013-10-16 23:20:00,
2013-10-16 19:25:00,58.1,55.8,30.05,North,360,0.0,1.0,92,0.00,CLR,CLR,0.00,0.0,WeatherDisplay:10.37,2013-10-16 23:25:00,
2013-10-16 19:35:00,58.0,55.7,30.05,North,360,0.0,0.0,92,0.00,CLR,CLR,0.00,0.0,WeatherDisplay:10.37,2013-10-16 23:35:00,
2013-10-16 19:40:00,57.9,55.9,30.05,North,360,0.0,0.0,93,0.00,CLR,CLR,0.00,0.0,WeatherDisplay:10.37,2013-10-16 23:40:00,
2013-10-16 19:50:00,57.8,55.8,30.05,North,360,0.0,0.0,93,0.00,CLR,CLR,0.00,0.0,WeatherDisplay:10.37,2013-10-16 23:50:00,
2013-10-16 19:55:00,57.7,55.7,30.06,North,360,0.0,0.0,93,0.00,CLR,CLR,0.00,0.0,WeatherDisplay:10.37,2013-10-16 23:55:00,
2013-10-16 20:00:00,57.7,55.7,30.05,North,360,0.0,3.0,93,0.00,CLR,CLR,0.00,0.0,WeatherDisplay:10.37,2013-10-17 00:00:00,
2013-10-16 20:10:00,57.6,55.6,30.05,North,360,0.0,2.0,93,0.00,CLR,CLR,0.00,0.0,WeatherDisplay:10.37,2013-10-17 00:10:00,
2013-10-16 20:20:00,57.6,55.6,30.06,North,360,0.0,2.0,93,0.00,CLR,CLR,0.00,0.0,WeatherDisplay:10.37,2013-10-17 00:20:00,
2013-10-16 20:25:00,57.6,55.6,30.06,North,360,0.0,0.0,93,0.00,CLR,CLR,0.00,0.0,WeatherDisplay:10.37,2013-10-17 00:25:00,
2013-10-16 20:30:00,57.6,55.6,30.06,North,360,0.0,0.0,93,0.00,CLR,CLR,0.00,0.0,WeatherDisplay:10.37,2013-10-17 00:30:00,
2013-10-16 20:40:00,57.5,55.5,30.06,North,360,0.0,0.0,93,0.00,CLR,CLR,0.00,0.0,WeatherDisplay:10.37,2013-10-17 00:40:00,
2013-10-16 20:50:00,57.5,55.5,30.06,North,360,0.0,0.0,93,0.00,CLR,CLR,0.00,0.0,WeatherDisplay:10.37,2013-10-17 00:50:00,
2013-10-16 20:55:00,57.4,55.4,30.06,North,360,0.0,0.0,93,0.00,CLR,CLR,0.00,0.0,WeatherDisplay:10.37,2013-10-17 00:55:00,
2013-10-16 21:00:00,57.3,55.3,30.06,North,360,0.0,0.0,93,0.00,CLR,CLR,0.00,0.0,WeatherDisplay:10.37,2013-10-17 01:00:00,
2013-10-16 21:05:00,57.3,55.3,30.06,North,360,0.0,0.0,93,0.00,CLR,CLR,0.00,0.0,WeatherDisplay:10.37,2013-10-17 01:05:00,
2013-10-16 21:15:00,57.2,55.2,30.06,North,360,0.0,0.0,93,0.00,CLR,CLR,0.00,0.0,WeatherDisplay:10.37,2013-10-17 01:15:00,
2013-10-16 21:25:00,57.1,55.0,30.06,North,360,0.0,0.0,93,0.00,CLR,CLR,0.00,0.0,WeatherDisplay:10.37,2013-10-17 01:25:00,
2013-10-16 21:30:00,57.0,55.0,30.06,North,360,1.0,3.0,93,0.00,CLR,CLR,0.00,0.0,WeatherDisplay:10.37,2013-10-17 01:30:00,
2013-10-16 21:35:00,56.9,54.9,30.06,North,360,0.0,2.0,93,0.00,CLR,CLR,0.00,0.0,WeatherDisplay:10.37,2013-10-17 01:35:00,
2013-10-16 21:45:00,56.8,54.8,30.06,North,360,0.0,0.0,93,0.00,CLR,CLR,0.00,0.0,WeatherDisplay:10.37,2013-10-17 01:45:00,
2013-10-16 21:50:00,56.8,55.1,30.06,North,360,1.0,2.0,94,0.00,CLR,CLR,0.00,0.0,WeatherDisplay:10.37,2013-10-17 01:50:00,
2013-10-16 21:55:00,56.6,54.9,30.06,North,360,1.0,2.0,94,0.00,CLR,CLR,0.00,0.0,WeatherDisplay:10.37,2013-10-17 01:55:00,
2013-10-16 22:00:00,56.6,54.9,30.06,North,360,0.0,2.0,94,0.00,CLR,CLR,0.00,0.0,WeatherDisplay:10.37,2013-10-17 02:00:00,
2013-10-16 22:05:00,56.6,54.9,30.06,North,360,1.0,3.0,94,0.00,CLR,CLR,0.00,0.0,WeatherDisplay:10.37,2013-10-17 02:05:00,
2013-10-16 22:10:00,56.5,54.8,30.06,North,360,0.0,0.0,94,0.00,CLR,CLR,0.00,0.0,WeatherDisplay:10.37,2013-10-17 02:10:00,
2013-10-16 22:20:00,56.5,54.7,30.06,North,360,0.0,0.0,94,0.00,CLR,CLR,0.00,0.0,WeatherDisplay:10.37,2013-10-17 02:20:00,
2013-10-16 22:30:00,56.5,54.8,30.06,North,360,0.0,0.0,94,0.00,CLR,CLR,0.00,0.0,WeatherDisplay:10.37,2013-10-17 02:30:00,
2013-10-16 22:35:00,56.5,55.1,30.06,North,360,0.0,0.0,95,0.00,CLR,CLR,0.00,0.0,WeatherDisplay:10.37,2013-10-17 02:35:00,
2013-10-16 22:40:00,56.5,55.1,30.06,North,360,0.0,0.0,95,0.00,CLR,CLR,0.00,0.0,WeatherDisplay:10.37,2013-10-17 02:40:00,
2013-10-16 22:50:00,56.5,55.1,30.06,North,360,0.0,0.0,95,0.00,CLR,CLR,0.00,0.0,WeatherDisplay:10.37,2013-10-17 02:50:00,
2013-10-16 22:55:00,56.6,55.1,30.06,North,360,0.0,0.0,95,0.00,CLR,CLR,0.00,0.0,WeatherDisplay:10.37,2013-10-17 02:55:00,
2013-10-16 23:00:00,56.6,55.2,30.06,North,360,0.0,0.0,95,0.00,CLR,CLR,0.00,0.0,WeatherDisplay:10.37,2013-10-17 03:00:00,
2013-10-16 23:05:00,56.6,55.2,30.06,North,360,0.0,0.0,95,0.00,CLR,CLR,0.00,0.0,WeatherDisplay:10.37,2013-10-17 03:05:00,
2013-10-16 23:10:00,56.6,55.2,30.06,North,360,0.0,0.0,95,0.00,CLR,CLR,0.00,0.0,WeatherDisplay:10.37,2013-10-17 03:10:00,
2013-10-16 23:15:00,56.6,55.2,30.06,North,360,0.0,0.0,95,0.00,CLR,CLR,0.00,0.0,WeatherDisplay:10.37,2013-10-17 03:15:00,
2013-10-16 23:20:00,56.7,55.3,30.06,North,360,0.0,0.0,95,0.00,CLR,CLR,0.00,0.0,WeatherDisplay:10.37,2013-10-17 03:20:00,
2013-10-16 23:25:00,56.7,55.3,30.06,North,360,0.0,0.0,95,0.00,CLR,CLR,0.00,0.0,WeatherDisplay:10.37,2013-10-17 03:25:00,
2013-10-16 23:30:00,56.7,55.3,30.06,North,360,0.0,0.0,95,0.00,CLR,CLR,0.00,0.0,WeatherDisplay:10.37,2013-10-17 03:30:00,
2013-10-16 23:40:00,56.7,55.3,30.05,North,360,0.0,0.0,95,0.00,CLR,CLR,0.00,0.0,WeatherDisplay:10.37,2013-10-17 03:40:00,
2013-10-16 23:50:00,56.5,55.1,30.05,North,360,0.0,0.0,95,0.00,CLR,CLR,0.00,0.0,WeatherDisplay:10.37,2013-10-17 03:50:00,
2013-10-16 23:55:00,56.4,55.0,30.05,North,360,0.0,0.0,95,0.00,CLR,CLR,0.00,0.0,WeatherDisplay:10.37,2013-10-17 03:55:00,